LogoCoinalyze
    Ad-Free Version ホーム マーケット一覧 資金調達率一覧
    先物データ
    • 集計データ (コイン一覧)
    • 個別チャート
    • 全体チャート
    アラート
    TA
    Bitcoin Ethereum BNB Ripple Tron Dogecoin ZCash Monero UNUS SED LEO Chainlink Cardano Stellar Lumens Bitcoin Cash Litecoin Hedera Cronos Polkadot Ethereum Classic Algorand Cosmos Quant VeChain Dash Bitcoin SV BitTorrent Terra Tezos Decred Iota The Graph THETA MultiversX Decentraland NEO Chiliz Golem Basic Attention Token Horizen Qtum DigiByte 0x Beam RIF Token FTX Token Holo FUNToken aelf Zilliqa Ontology Nano Enjin Coin Ravencoin Mask Network Verge Siacoin Status WINk Waves IoTeX iExec RLC Power Ledger Steem Kyber Network Crystal Lisk Ark Ardor WOO Network IOST WAX Icon Storj Loopring Wanchain Bitcoin Diamond Augur AdEx Bitcoin Gold OmiseGO NEM MonaCoin BitShares Ren Komodo V Systems Nuls Mithril SOLVE Maker EOS Aion Nebulas HedgeTrade Bread Fetch.ai TomoChain Polygon Fantom Waltonchain GXChain Bytom Metaverse ETP MaidSafeCoin QASH
    注文する:
    その他
    • API
    • ローソク足パターン
    • 寄付する
    • お問い合わせ
    • サイトマップ
    • Privacy Policy
    • Disclaimer
    • Theme:
    日本語
    • English
    • Français
    • Русский
    • Deutsch
    • Türkçe
    • Nederlands
    • Português (BR)
    • Español
    • 한국어
    • 简体中文
     
    ログイン / サインアップ
    Markets/ Pepe/ PEPE to FDUSD/ PEPEFDUSD Binance
    Trades
    WL
    チャット
    統計
    ニュース
    ⦷
    AAA
    0.00000346 588200.00000000 10:06:32
    0.00000346 588200.00000000 10:05:29
    0.00000346 2536274.00000000 09:49:26
    0.00000345 448681.00000000 09:49:24
    0.00000345 450000.00000000 09:49:24
    0.00000346 2528656.00000000 09:49:22
    0.00000346 42316538.00000000 09:49:21
    0.00000347 3825706.00000000 09:43:29
    0.00000347 16.00000000 09:23:55
    0.00000347 10507600.00000000 09:21:40
    0.00000348 5648991.00000000 09:16:22
    0.00000348 8191037.00000000 09:12:35
    0.00000348 5648991.00000000 09:12:35
    0.00000348 2521100.00000000 09:11:59
    0.00000348 3063600.00000000 09:11:58
    0.00000347 7920307.00000000 09:03:11
    0.00000347 500000.00000000 08:44:27
    0.00000347 421053.00000000 08:23:14
    0.00000347 418186.00000000 08:23:14
    0.00000347 419826.00000000 08:23:13
    0.00000347 417307.00000000 08:23:11
    0.00000348 85.00000000 08:23:11
    0.00000348 20808300.00000000 08:23:08
    0.00000349 47.00000000 08:16:29
    0.00000349 987500.00000000 08:14:50
    0.00000349 4871061.00000000 08:14:05
    0.00000348 440891.00000000 08:14:05
    0.00000349 32.00000000 08:14:05
    0.00000349 8791200.00000000 08:14:03
    0.00000350 51733140.00000000 08:07:06
    0.00000349 51.00000000 08:06:23
    0.00000349 987600.00000000 08:06:23
    0.00000349 2513500.00000000 08:06:20
    0.00000349 987500.00000000 08:06:18
    0.00000348 2521084.00000000 08:05:24
    0.00000349 56.00000000 08:05:20
    0.00000349 17020400.00000000 08:05:20
    0.00000348 42.00000000 08:03:35
    0.00000348 4504500.00000000 08:03:35
    0.00000347 296736.00000000 08:01:00
    0.00000347 7032108.00000000 07:47:11
    0.00000348 7025626.00000000 07:39:16
    0.00000347 4511024.00000000 07:30:36
    0.00000348 812199049.00000000 07:30:22
    0.00000348 241210374.00000000 07:30:22
    0.00000348 856254084.00000000 07:30:22
    0.00000348 712736209.00000000 07:30:22
    0.00000347 2477867078.00000000 07:30:22
    0.00000347 23733566.00000000 07:28:30
    0.00000347 23665897.00000000 07:26:58
    0.00000347 44255179.00000000 07:25:31
    0.00000348 990385.00000000 07:12:00
    0.00000347 421053.00000000 07:07:44
    0.00000347 418186.00000000 07:07:43
    0.00000347 444323.00000000 07:07:42
    0.00000347 443479.00000000 07:07:41
    0.00000347 442197.00000000 07:07:41
    0.00000348 81.00000000 07:07:41
    0.00000348 16270700.00000000 07:07:40
    0.00000349 46012058.00000000 07:05:56
    0.00000349 5632758.00000000 07:05:52
    0.00000348 69.00000000 07:04:33
    0.00000348 3511400.00000000 07:04:33
    0.00000348 23613100.00000000 07:04:30
    0.00000348 2528656.00000000 07:04:27
    0.00000348 193901271.00000000 07:04:24
    0.00000348 116747417.00000000 07:04:23
    0.00000347 2536274.00000000 07:04:12
    0.00000347 39301168.00000000 07:04:11
    0.00000346 50000000.00000000 06:34:10
    0.00000346 253761800.00000000 06:28:53
    0.00000346 607893.00000000 06:28:49
    0.00000346 23749600.00000000 06:20:26
    0.00000346 46846284.00000000 06:19:32
    0.00000346 116747417.00000000 06:06:20
    0.00000346 116747417.00000000 06:06:13
    0.00000345 447369.00000000 06:06:10
    0.00000345 2543863.00000000 06:06:06
    0.00000346 116747417.00000000 06:06:04
    0.00000345 2551499.00000000 05:51:21
    0.00000345 115121519.00000000 05:51:17
    0.00000345 16604200.00000000 05:51:17
    0.00000345 84266999.00000000 05:51:17
    0.00000345 116747417.00000000 05:51:17
    0.00000344 90169646.00000000 05:48:40
    0.00000344 116747417.00000000 05:48:32
    0.00000343 2559105.00000000 05:48:21
    0.00000344 116747417.00000000 05:48:19
    0.00000343 65943916.00000000 05:37:45
    0.00000343 116747417.00000000 05:37:45
    0.00000343 116747417.00000000 05:36:55
    0.00000342 9649123.00000000 05:27:08
    0.00000342 97504594.00000000 05:27:08
    0.00000342 116747417.00000000 05:27:07
    0.00000343 2559105.00000000 05:23:36
    0.00000342 116747417.00000000 05:23:33
    0.00000343 2551499.00000000 05:22:43
    0.00000343 5830904.00000000 05:22:41
    0.00000343 242021611.00000000 05:22:41
    0.00000343 116747417.00000000 05:22:41
    ログアウト
    AAA
    ヘルプ
    🙂 🤣 😎 🤗 😛 😉 😜 🤑 🤔 😑 😴 😕 🙃 😲 😇 🙁 😢 😬 😟 😠 🕺 🏃 💪 ✌ 👌 👍 👎 👏 👋 🤝 🍺 🍻 🐋 🐟 🦈 🗽 🚄 ✈ 🛑 🚀 🏦 🌚 ⭐ 🌞 ⚡ 🏆 💰 💲 🔨 ❓ ❗ 💯 🔶 🏁
    ☺
    ログイン または サインアップ してチャット
    24時間
    変化
    +1.47%
    出来高
    26,736,907,523
    最高値
    0.00000350
    最安値
    0.00000337
    7日間
    変化
    -10.36%
    出来高
    217,316,000,965
    最高値
    0.00000401
    最安値
    0.00000337
    30日間
    変化
    +18.90%
    出来高
    1,403,720,735,428
    最高値
    0.00000456
    最安値
    0.00000254
    DOGE, SHIB, PEPE, or Something Else: Which Meme Coin Can Make History in September? (3 AIs Weigh In)
    "DOGE remains the most likely to record the largest move in dollar terms and lead the entire sector," ChatGPT stated.
    cryptopotato.com
    Sept 3, 2026 00:41
    Pepe price rallies 25% as whale demand and futures interest surge
    Key takeaways Pepe has gained 25% this week, including a combined 22% advance over the previous two days. Seven whale transactions worth more than $1 million each occurred Thursday, the highest...
    coinjournal.net
    Aug 21, 2026 08:41
    PEPE Supply on Exchanges Just Took a Massive Hit – What’s Next?
    A drop in PEPE exchange balances has added to bullish expectations despite muted trader interest.
    cryptopotato.com
    Aug 6, 2026 20:02
    PEPE Exchange Outflows Hit Nearly 2-Year High as Whales Accumulate
    Pepe (PEPE) recorded its largest single-day exchange outflow since November 2024, with 4.54 trillion tokens leaving trading platforms, signaling that holders are moving supply away from immediate...
    beincrypto.com
    Aug 6, 2026 04:57
    Meme Coin Based on White House Shooter Conspiracy Rallies 320%
    $HENRY surged 300% after a 2023 Pepe tweet appeared to name the White House shooter, fueling a viral time-travel meme. The post Meme Coin Based on White House Shooter Conspiracy Rallies 320%...
    beincrypto.com
    Apr 27, 2026 16:11
    PEPE surges 4% as market sentiment improves, eyes Key resistance breakout
    Key takeaways Pepe extends gains on Wednesday, stretching its rally from the 50-day EMA. Derivatives data show heightened retail activity as risk-on sentiment returns to the market. Pepe (PEPE) is...
    coinjournal.net
    Apr 22, 2026 11:44
    Why The PEPE Price Could Stage A 55X Rally To Reach New $0.0001 ATH
    The PEPE price has now started to edge back into bullish conversations after the recent inflows into the crypto market. The last time PEPE’s weekly chart printed the kind of structure now...
    newsbtc.com
    Apr 21, 2026 15:30
    Pepe (PEPE) surges 9%, drawing interest from whales
    Key takeaways PEPE is up 9% in the last 24 hours, making it one of the best performers among the top 50 cryptocurrencies by market cap. The rally comes amid renewed interest from whales and retail...
    coinjournal.net
    Apr 16, 2026 07:40
    Murad Says SPX6900 (SPX) Is Primed for a Rally — Is He Right This Time?
    Crypto influencer Murad Mahmudov claims SPX6900 (SPX) is stabilizing at the same market cap level where Dogecoin (DOGE) and Pepe (PEPE) consolidated before their explosive rallies. The...
    beincrypto.com
    Apr 5, 2026 21:36
    The Shiba Inu Of This Cycle: Analyst Shares Why It Is Better To Buy PEPE Now
    In the bull market cycle of 2021-2022, the Shiba Inu meme coin made waves in a way that changed the face of meme coins forever. This came after Dogecoin’s initial 36,000% rally, and Shiba Inu...
    newsbtc.com
    Apr 4, 2026 07:30
    PEPE Explodes by 18% Amid Altcoin Rally, BTC Tapped $74K: Market Watch
    The frog-themed meme coin is today's biggest gainer, followed by TAO, DOT, and BONK.
    cryptopotato.com
    Mar 16, 2026 10:56
    Should PEPE traders brace for volatility as short squeeze potential builds?
    The memecoin market has seen its collective market capitalization drop by 48% over the past year, and 6.9% over the past month, according to CoinMarketCap. According to Glassnode, the memecoin...
    ambcrypto.com
    Mar 7, 2026 18:00
    チャットでコマンドを入力するだけです。 nick1を実際のニックネームに置き換えてください
    • /ignore nick1 チャットユーザーを無視する
    • /unignore nick1 チャットユーザーを無視しない
    • /ignorelist 無視したチャットユーザーを表示する